[[[{"header":{"parameterUnit":"kt","parameterCategory":2,"dx":1,"dy":1,"la1":30.253999710083008,"la2":30.299108505249023,"lo1":-89.0895004272461,"lo2":-89.04439544677734,"nx":28,"ny":28,"refTime":"2022-10-22T21:00:00:Z","depth":0,"parameterNumber":1,"parameterNumberName":"U-component_of_WINDS"},"data":[-6.7991,-6.8077,-6.8093,-6.8199,-6.8231,-6.8305,-6.8337,-6.8379,-6.8417,-6.8508,-6.8563,-6.8587,-6.863,-6.8699,-6.8759,-6.8768,-6.8791,-6.8811,-6.8818,-6.8717,-6.8703,-6.8691,-6.867,-6.8817,-6.8817,-6.892,-6.8921,-6.8921,-6.7915,-6.7948,-6.8009,-6.8078,-6.813,-6.812,-6.8174,-6.8218,-6.8285,-6.8332,-6.8387,-6.8468,-6.8534,-6.8571,-6.8637,-6.8677,-6.8675,-6.8694,-6.8689,-6.8696,-6.8589,-6.8567,-6.8694,-6.8694,-6.8694,-6.8694,-6.8694,-6.8694,-6.7782,-6.7834,-6.7884,-6.795,-6.7989,-6.8035,-6.8087,-6.8115,-6.8174,-6.8245,-6.8252,-6.8327,-6.8377,-6.8463,-6.8496,-6.8555,-6.8537,-6.8561,-6.8567,-6.8572,-6.8575,-6.8421,-6.8568,-6.8567,-6.8567,-6.8567,-6.8567,0,-6.7688,-6.7697,-6.7756,-6.782,-6.7869,-6.792,-6.7969,-6.8002,-6.8025,-6.8073,-6.8144,-6.8187,-6.8272,-6.8339,-6.8404,-6.8433,-6.8425,-6.8427,-6.8443,-6.8439,-6.8427,-6.8432,-6.8254,-6.8422,-6.8421,-6.842,-6.8419,-6.8419,-6.7552,-6.7611,-6.7671,-6.771,-6.774,-6.7804,-6.7845,-6.7861,-6.7904,-6.7966,-6.8011,-6.808,-6.8134,-6.8245,-6.8276,-6.8339,-6.8335,-6.8398,-6.8345,-6.8339,-6.8333,-6.8328,-6.8333,-6.8406,-6.8408,-6.8409,-6.841,0,-6.7473,-6.7497,-6.7593,-6.7646,-6.7662,-6.7722,-6.7767,-6.782,-6.7841,-6.7916,-6.7934,-6.7967,-6.8036,-6.8057,-6.814,-6.8148,-6.8247,-6.8244,-6.823,-6.8229,-6.8285,-6.8279,-6.8468,-6.8492,-6.8343,-6.8345,-6.8346,0,-6.7365,-6.7442,-6.7472,-6.7527,-6.7613,-6.7627,-6.7711,-6.7737,-6.778,-6.7839,-6.7834,-6.789,-6.7908,-6.7966,-6.7979,-6.8064,-6.8081,-6.8091,-6.8093,-6.809,-6.8088,-6.8109,-6.81,-6.8098,-6.8097,-6.8096,-6.8096,0,-6.7237,-6.7344,-6.7433,-6.7461,-6.7525,-6.7566,-6.7594,-6.7642,-6.7681,-6.7736,-6.7762,-6.7826,-6.7859,-6.7909,-6.7924,-6.7887,-6.8029,-6.7982,-6.8039,-6.8039,-6.8067,-6.8064,-6.823,-6.8094,-6.8094,-6.8094,-6.8093,0,-6.7151,-6.7207,-6.7333,-6.7386,-6.7413,-6.7472,-6.7534,-6.759,-6.764,-6.7651,-6.7695,-6.7692,-6.777,-6.7721,-6.7828,-6.7775,-6.7809,-6.7826,-6.7831,-6.7836,-6.7779,-6.7865,-6.8024,-6.804,-6.7845,-6.7843,-6.7841,0,-6.6997,-6.7131,-6.7143,-6.7262,-6.7326,-6.7315,-6.7381,-6.7425,-6.7446,-6.7503,-6.7526,-6.7591,-6.7559,-6.7581,-6.7632,-6.7657,-6.7727,-6.765,-6.7729,-6.7731,-6.7712,-6.786,-6.7876,-6.7988,-6.7815,-6.7818,-6.782,0,-6.688,-6.6956,-6.6976,-6.7008,-6.7069,-6.7122,-6.7199,-6.7265,-6.7302,-6.7353,-6.7416,-6.7509,-6.7487,-6.7525,-6.753,-6.7581,-6.768,-6.7551,-6.7552,-6.7571,-6.7804,-6.7819,-6.7838,-6.7672,-6.7675,-6.7678,-6.7799,0,-6.6741,-6.6811,-6.6868,-6.6938,-6.6983,-6.7059,-6.708,-6.7124,-6.7123,-6.7143,-6.7237,-6.7278,-6.7345,-6.7373,-6.7372,-6.7484,-6.7468,-6.7444,-6.7394,-6.7492,-6.7532,-6.7549,-6.7333,-6.7332,-6.7331,-6.733,0,0,-6.6586,-6.6686,-6.6695,-6.6769,-6.6807,-6.6793,-6.6872,-6.6908,-6.6979,-6.7005,-6.6978,-6.7114,-6.7148,-6.7259,-6.7291,-6.732,-6.7341,-6.7305,-6.7446,-6.7459,-6.7471,-6.7514,-6.7531,-6.7328,-6.7327,-6.7327,-6.7327,0,-6.6539,-6.6575,-6.6654,-6.6691,-6.6746,-6.6762,-6.6781,-6.6832,-6.6848,-6.694,-6.6925,-6.6984,-6.7092,-6.7129,-6.7162,-6.7294,-6.7278,-6.7313,-6.7376,-6.7434,-6.7449,-6.7461,-6.7506,-6.7522,-6.7324,-6.7324,-6.7324,0,-6.6424,-6.6463,-6.6503,-6.6589,-6.6624,-6.669,-6.6644,-6.6716,-6.6765,-6.6744,-6.6835,-6.686,-6.6912,-6.7015,-6.7062,-6.7038,-6.7219,-6.7166,-6.7174,-6.7178,-6.7235,-6.7253,-6.7268,-6.7064,-6.7063,-6.7063,0,0,-6.638,-6.6445,-6.6489,-6.658,-6.6603,-6.6628,-6.6665,-6.6667,-6.6714,-6.6733,-6.6764,-6.681,-6.6872,-6.6913,-6.6973,-6.7084,-6.7095,-6.7133,-6.7146,-6.7156,-6.7165,-6.7225,-6.7242,-6.7059,-6.7059,-6.7059,0,0,-6.6358,-6.6413,-6.6404,-6.6511,-6.6557,-6.6605,-6.666,-6.6649,-6.6705,-6.6697,-6.6704,-6.6717,-6.6814,-6.6839,-6.6787,-6.6955,-6.6906,-6.6919,-6.6934,-6.695,-6.6962,-6.6953,-6.6743,0,0,0,0,0,-6.6319,-6.6406,-6.6398,-6.6418,-6.6526,-6.6611,-6.6624,-6.6632,-6.6597,-6.664,-6.6664,-6.6645,-6.6812,-6.6766,-6.6787,-6.6843,-6.7011,-6.7019,-6.7027,-6.7074,-6.709,-6.7104,0,0,0,0,0,0,-6.6327,-6.6352,-6.6395,-6.6447,-6.6472,-6.6608,-6.655,-6.6554,-6.6593,-6.6588,-6.6641,-6.6647,-6.6655,-6.6756,-6.6774,-6.6828,-6.6737,-6.7014,-6.7021,-6.7028,-6.7079,-6.7092,-6.7104,0,0,0,0,0,-6.6333,-6.6354,-6.6524,-6.6446,-6.6467,-6.6499,-6.6546,-6.655,-6.6579,-6.6617,-6.6622,-6.6582,-6.6656,-6.6672,-6.6767,-6.682,-6.6724,-6.6731,-6.7019,-6.7024,-6.703,-6.7086,0,0,0,0,0,0,-6.6338,-6.6358,-6.6529,-6.6536,-6.6413,-6.6491,-6.6503,-6.6546,-6.6606,-6.6612,-6.6557,-6.6552,-6.6658,-6.667,-6.6682,-6.6816,-6.6714,-6.6721,-6.6725,-6.7023,-6.7028,-6.7032,0,0,0,0,0,0,-6.6346,-6.6363,-6.6532,-6.649,-6.6492,-6.6484,-6.6495,-6.6577,-6.6607,-6.6543,-6.6541,-6.6554,-6.6639,-6.6669,-6.6679,-6.6806,-6.6706,-6.6712,-6.6717,-6.672,-6.7027,-6.703,0,0,0,0,0,0,-6.6354,-6.6368,-6.6488,-6.649,-6.6491,-6.6567,-6.6556,-6.6666,-6.6571,-6.654,-6.6563,-6.6559,-6.6639,-6.6649,-6.6676,-6.68,-6.6804,-6.6706,-6.6711,-6.6714,-6.6716,0,0,0,0,0,0,0,-6.636,-6.6261,-6.6489,-6.649,-6.6491,-6.6597,-6.6599,-6.6601,-6.657,-6.6567,-6.6564,-6.6561,-6.6668,-6.6675,-6.6683,-6.6795,0,0,-6.6705,-6.6709,0,0,0,0,0,0,0,0,-6.6255,-6.626,-6.649,-6.6491,-6.6492,-6.6598,-6.6599,-6.6601,-6.657,-6.6567,-6.6564,-6.6562,-6.667,-6.6676,-6.6682,0,0,0,0,0,0,0,0,0,0,0,0,0,0,0,-6.649,-6.6491,0,-6.6598,-6.6599,-6.66,-6.6569,-6.6567,-6.6565,-6.6563,-6.6672,-6.6676,-6.6681,0,0,0,0,0,0,0,0,0,0,0,0,0,0,0,0,0,0,0,0,0,0,0,0,0,0,0,0,0,0,0,0,0,0,0,0,0,0,0,0,0,0,0,0,0,0,0,0,0,0,0,0,0,0,0,0,0,0,0,0,0,0,0,0,0,0,0,0,0]}],[{"header":{"parameterUnit":"kt","parameterCategory":2,"dx":1,"dy":1,"la1":30.253999710083008,"la2":30.299108505249023,"lo1":-89.0895004272461,"lo2":-89.04439544677734,"nx":28,"ny":28,"refTime":"2022-10-22T21:00:00:Z","depth":0,"parameterNumber":2,"parameterNumberName":"V-component_of_WINDS"},"data":[10.8698,10.8843,10.8845,10.9009,10.9037,10.9148,10.9187,10.9238,10.9277,10.9406,10.948,10.9492,10.9528,10.9613,10.969,10.9692,10.9724,10.9777,10.977,10.9541,10.9509,10.9478,10.9445,10.9784,10.9785,11.0006,11.0008,11.001,10.8533,10.8564,10.8652,10.8737,10.8811,10.8762,10.8824,10.8888,10.8987,10.9036,10.9108,10.922,10.9307,10.9325,10.9407,10.9471,10.9449,10.9493,10.9486,10.9492,10.9248,10.9213,10.9509,10.9509,10.9508,10.9508,10.9508,10.9508,10.8232,10.8319,10.8371,10.8465,10.8508,10.8563,10.8644,10.8658,10.8741,10.883,10.8811,10.8921,10.8967,10.9063,10.9094,10.9178,10.9128,10.9173,10.9184,10.9195,10.9208,10.8887,10.9191,10.919,10.9189,10.9189,10.9188,0,10.8011,10.8006,10.8089,10.8174,10.8242,10.8305,10.8363,10.8413,10.8395,10.8464,10.8562,10.8617,10.8726,10.8815,10.889,10.8912,10.8861,10.8856,10.8887,10.8897,10.8897,10.8897,10.8498,10.8846,10.8843,10.8841,10.884,10.8838,10.7705,10.7807,10.786,10.7918,10.7949,10.8043,10.8098,10.8075,10.8134,10.8199,10.8274,10.8364,10.8434,10.8588,10.8596,10.8675,10.8651,10.8784,10.8662,10.8669,10.865,10.8644,10.8653,10.8807,10.8811,10.8814,10.8817,0,10.7533,10.7532,10.7687,10.7728,10.7741,10.7847,10.7879,10.7963,10.7965,10.8079,10.8104,10.8106,10.8201,10.8188,10.8291,10.8281,10.845,10.8425,10.8435,10.8428,10.8545,10.8533,10.8929,10.8978,10.8629,10.8632,10.8635,0,10.727,10.7403,10.7392,10.7483,10.7629,10.7602,10.7746,10.7762,10.7801,10.7891,10.7834,10.7918,10.7888,10.797,10.7955,10.8091,10.811,10.8109,10.8103,10.8113,10.8113,10.8139,10.8121,10.8087,10.8085,10.8084,10.8082,0,10.6999,10.7148,10.7295,10.7328,10.7382,10.7451,10.7476,10.7518,10.7571,10.7636,10.767,10.7748,10.7789,10.7849,10.7829,10.7746,10.7995,10.7877,10.7993,10.7994,10.8046,10.8042,10.84,10.8079,10.8079,10.8078,10.8078,0,10.6784,10.6855,10.7069,10.7112,10.7151,10.7247,10.7323,10.7402,10.745,10.7448,10.7498,10.7456,10.7575,10.7459,10.7621,10.7519,10.7563,10.7573,10.7581,10.7588,10.7457,10.7657,10.8002,10.8036,10.7599,10.7595,10.7591,0,10.6473,10.6687,10.6666,10.6868,10.6964,10.6894,10.6999,10.7044,10.7049,10.7129,10.7132,10.7223,10.7133,10.7159,10.7242,10.7247,10.738,10.7229,10.7339,10.7343,10.7327,10.7645,10.7698,10.7929,10.754,10.7545,10.7549,0,10.623,10.6296,10.6334,10.6369,10.6426,10.6505,10.6627,10.6711,10.6766,10.6821,10.692,10.7047,10.6984,10.7027,10.6999,10.7086,10.7289,10.7005,10.7005,10.7055,10.7513,10.7563,10.7603,10.7251,10.7257,10.7262,10.7509,0,10.5904,10.601,10.6112,10.6193,10.6252,10.6378,10.6364,10.6428,10.6397,10.6398,10.6543,10.6573,10.6655,10.6695,10.6664,10.6867,10.683,10.6761,10.6642,10.6852,10.6932,10.6966,10.6525,10.6521,10.6518,10.6516,0,0,10.5605,10.5757,10.5727,10.5844,10.5892,10.5815,10.595,10.5987,10.6062,10.6096,10.6031,10.6214,10.6239,10.6415,10.648,10.6513,10.6547,10.6473,10.6753,10.678,10.6804,10.6891,10.6926,10.651,10.6509,10.6508,10.6507,0,10.5482,10.5517,10.5652,10.569,10.5745,10.574,10.5773,10.5811,10.5817,10.5959,10.5889,10.5974,10.6119,10.6155,10.6193,10.6454,10.6393,10.648,10.6626,10.6724,10.6754,10.6781,10.6873,10.6906,10.65,10.65,10.6501,0,10.5239,10.527,10.5334,10.5441,10.5475,10.5575,10.545,10.556,10.5633,10.5536,10.5678,10.5691,10.5738,10.5907,10.5982,10.5924,10.6254,10.6147,10.6165,10.6172,10.6265,10.6302,10.6335,10.5902,10.59,10.5898,0,0,10.5134,10.5233,10.5255,10.5413,10.544,10.5433,10.5484,10.5457,10.5503,10.5521,10.5536,10.5581,10.5664,10.572,10.5797,10.5986,10.5991,10.6074,10.6102,10.6125,10.6144,10.6244,10.6281,10.5891,10.5891,10.589,0,0,10.5082,10.5116,10.5077,10.5259,10.5307,10.5336,10.5432,10.5383,10.5452,10.5435,10.5391,10.5401,10.5558,10.5573,10.5475,10.5754,10.5638,10.5661,10.5738,10.5773,10.5801,10.5792,10.5346,0,0,0,0,0,10.4949,10.5113,10.5077,10.5105,10.5237,10.5357,10.5373,10.5343,10.5262,10.5339,10.5344,10.5276,10.5511,10.5423,10.5449,10.5558,10.5793,10.5811,10.5827,10.597,10.6007,10.6039,0,0,0,0,0,0,10.496,10.4995,10.5072,10.511,10.5139,10.5351,10.5208,10.5204,10.5253,10.5239,10.5278,10.5277,10.5251,10.5407,10.5431,10.5535,10.5337,10.58,10.5815,10.5828,10.5983,10.6013,10.6039,0,0,0,0,0,10.4968,10.4996,10.5216,10.5107,10.5133,10.5132,10.5201,10.5197,10.5234,10.5241,10.5239,10.5207,10.5255,10.5273,10.5421,10.5525,10.532,10.5329,10.581,10.5821,10.5832,10.5998,0,0,0,0,0,0,10.4974,10.4992,10.522,10.5227,10.5043,10.5119,10.513,10.5191,10.5232,10.5232,10.5167,10.5155,10.526,10.5273,10.5288,10.5524,10.5306,10.5315,10.5321,10.5818,10.5828,10.5836,0,0,0,0,0,0,10.4976,10.4998,10.5224,10.5144,10.5141,10.5108,10.5118,10.5237,10.5233,10.5155,10.5147,10.5161,10.5236,10.5274,10.5285,10.5473,10.5295,10.5304,10.531,10.5314,10.5826,10.5833,0,0,0,0,0,0,10.4985,10.5003,10.5142,10.514,10.5137,10.5207,10.5212,10.5348,10.517,10.5155,10.5152,10.5144,10.5239,10.5249,10.5283,10.5467,10.5472,10.5295,10.5301,10.5306,10.5309,0,0,0,0,0,0,0,10.4991,10.4876,10.5183,10.5137,10.5134,10.5287,10.5288,10.529,10.5168,10.5161,10.5154,10.5148,10.5243,10.5253,10.5263,10.5463,0,0,10.5294,10.5299,0,0,0,0,0,0,0,0,10.4868,10.4874,10.5183,10.5184,10.5186,10.5287,10.5288,10.529,10.5167,10.5161,10.5156,10.515,10.5246,10.5254,10.5262,0,0,0,0,0,0,0,0,0,0,0,0,0,0,0,10.5183,10.5184,0,10.5287,10.5288,10.5289,10.5166,10.5161,10.5157,10.5153,10.5248,10.5255,10.5261,0,0,0,0,0,0,0,0,0,0,0,0,0,0,0,0,0,0,0,0,0,0,0,0,0,0,0,0,0,0,0,0,0,0,0,0,0,0,0,0,0,0,0,0,0,0,0,0,0,0,0,0,0,0,0,0,0,0,0,0,0,0,0,0,0,0,0,0,0]}]]]